Tracking 19717 objects as of 25-Jun-2019
HD Live streaming from Space Station
objects crossing your sky now

ORBCOMM FM 111

Track ORBCOMM FM 111 now!
10-day predictions
ORBCOMM FM 111 is classified as:


NORAD ID: 40089
Int'l Code: 2014-040D
Perigee: 619.8 km
Apogee: 671.1 km
Inclination: 47.0 °
Period: 97.5 minutes
Semi major axis: 7016 km
RCS: Unknown
Launch date: July 14, 2014
Source: United States (US)
Launch site: AIR FORCE EASTERN TEST RANGE (AFETR)
aabbcc
Your satellite tracking list
Your tracking list is empty




NASA's NSSDC Master Catalog

Two Line Element Set (TLE):
1 40089U 14040D   19176.16219926 -.00000144  00000-0  89563-5 0  9996
2 40089  47.0074 275.6332 0036551 283.5549  76.1274 14.77143931266864
Source of the keplerian elements: AFSPC